Wind_Speed
24 25 25 25 26 27 26 25 24 25 26 26 25 25 24 24 24 24 22 21 21 21 20 19 18 18 18 17 17 16 16 15 15 14 14 13 12 12 12 12 11 10 10 9 9 9 9 9 9
24 25 26 27 28 27 27 26 25 26 27 27 27 26 26 26 26 25 24 23 22 22 21 21 21 20 20 19 19 18 18 17 16 16 15 15 14 14 13 13 13 12 11 11 10 10 10 11 11
24 25 26 27 28 28 27 26 26 27 27 28 28 28 29 28 27 27 25 25 24 24 23 23 22 22 21 21 20 19 19 18 18 17 17 16 16 15 15 14 14 14 13 12 12 12 12 12 12
25 26 27 28 28 27 27 27 27 28 28 28 28 28 29 29 29 28 27 26 26 25 26 25 25 24 23 22 21 20 19 19 18 18 18 18 17 17 16 16 16 15 15 14 14 14 13 13 13
26 27 28 29 29 27 27 27 28 28 29 29 29 28 28 29 29 28 28 28 27 27 27 27 26 25 25 24 23 22 21 20 19 19 19 19 18 18 18 17 17 17 17 16 16 16 16 15 15
26 27 28 28 28 27 26 27 28 29 30 29 29 29 28 29 30 29 29 29 28 28 28 27 26 26 25 25 25 24 23 21 21 20 20 19 19 19 19 18 18 18 18 18 17 18 17 17 17
26 27 28 27 26 26 26 26 27 28 29 28 28 27 27 28 29 29 30 30 29 28 28 27 27 27 26 25 25 25 24 23 22 21 21 21 20 20 20 20 19 18 19 19 19 19 19 18 18
26 27 27 26 26 25 25 26 26 27 28 28 27 26 26 28 29 29 30 30 30 29 29 28 27 27 27 26 25 26 26 25 23 23 22 22 21 21 21 20 20 20 19 20 20 20 20 20 20
25 26 26 25 26 25 25 26 26 26 27 27 27 26 26 27 29 29 29 29 29 30 29 30 29 28 28 27 26 26 27 26 25 24 23 23 23 22 22 21 21 21 20 20 20 20 21 21 21
25 26 25 25 25 25 25 26 26 26 26 27 27 27 26 27 28 29 29 29 29 30 30 30 30 29 29 28 27 27 27 27 26 26 25 24 24 23 23 22 22 22 21 21 21 21 22 22 22
25 25 24 24 25 25 25 25 26 26 26 26 26 27 27 27 28 28 28 29 29 30 30 31 30 30 29 29 28 27 27 27 27 27 26 25 25 25 24 24 24 23 22 22 22 22 23 23 23
25 24 24 24 24 24 24 24 26 27 25 26 26 25 26 27 27 28 28 28 29 30 31 30 30 30 30 30 29 28 27 27 28 28 27 26 26 25 24 25 25 25 24 23 22 22 23 23 24
24 24 23 23 24 24 24 24 25 26 26 26 26 26 26 26 27 27 27 28 29 30 31 31 30 30 31 31 30 29 28 28 28 28 28 28 27 26 26 27 26 25 25 24 23 23 23 23 24
24 24 23 23 24 24 24 24 25 26 27 25 25 27 27 26 27 27 27 27 29 29 30 31 31 30 30 30 30 30 29 28 29 29 29 29 28 28 27 27 27 26 25 25 24 24 24 24 24
23 23 23 23 24 24 25 25 25 26 26 26 25 25 26 26 26 26 27 28 28 28 28 29 30 31 31 31 32 31 30 28 30 31 31 31 29 29 29 29 29 28 27 27 27 26 26 25 25
23 24 23 23 24 24 24 24 23 26 25 24 24 24 26 26 26 26 27 27 25 27 27 27 29 30 30 32 33 33 33 30 29 30 31 32 31 31 30 31 31 30 29 29 28 28 27 27 27
24 24 23 23 24 25 24 23 23 25 25 24 23 23 25 26 26 25 26 27 25 26 27 28 27 29 31 31 32 32 33 31 30 31 32 33 33 32 32 32 32 32 32 31 31 30 30 30 29
24 25 24 24 24 24 24 24 24 24 25 24 23 23 23 25 26 26 26 26 25 25 27 27 27 28 30 31 31 31 32 31 31 32 33 33 33 33 33 33 33 34 34 33 33 32 32 32 32
25 25 25 24 24 24 24 24 24 24 24 24 24 24 23 23 24 25 26 26 26 27 27 27 28 28 29 29 31 32 32 31 31 32 32 33 34 34 34 35 35 35 35 35 34 34 34 34 34
26 25 25 25 25 25 25 25 25 25 25 26 25 25 25 24 24 24 25 26 26 27 29 29 28 29 30 30 31 32 33 32 31 32 31 33 35 35 35 36 36 36 36 36 36 37 37 36 35
25 25 25 26 26 26 27 26 26 26 26 27 27 27 27 26 25 25 25 25 26 26 27 28 28 28 30 30 31 33 34 34 32 33 33 33 35 37 37 37 37 37 37 37 37 38 38 38 37
25 26 27 28 28 27 27 28 26 26 27 27 27 28 29 28 26 26 25 25 25 26 26 26 27 28 30 31 32 34 34 34 33 33 34 34 36 38 39 39 38 38 39 38 39 39 39 39 39
26 26 27 28 29 30 29 30 27 28 28 29 29 29 29 29 29 27 27 27 26 26 27 27 28 28 30 31 32 33 34 35 35 34 35 35 36 38 39 39 39 39 39 39 39 39 39 38 38
27 27 28 29 29 30 29 30 29 28 29 30 30 31 30 30 30 30 29 28 28 27 28 29 29 29 30 31 33 33 33 35 36 35 35 36 37 38 40 40 40 40 40 40 41 40 40 40 39
28 28 29 30 31 31 29 31 29 28 29 30 31 31 32 32 31 31 31 29 30 29 29 30 30 31 31 31 32 33 34 36 36 36 36 38 39 39 39 39 39 40 40 39 40 41 41 41 41
29 28 29 30 31 31 31 32 29 28 29 30 31 32 32 33 34 33 33 31 30 31 32 31 31 31 32 33 34 34 35 36 37 37 36 37 38 38 39 40 40 41 41 41 41 43 43 42 42
30 30 30 31 32 32 33 32 31 30 30 30 31 32 32 33 35 34 34 33 32 32 33 33 33 33 33 34 35 36 37 37 37 37 36 36 37 38 40 41 40 41 42 42 42 43 44 43 43
33 32 32 32 33 34 34 32 31 31 31 32 32 33 33 33 34 35 35 35 34 34 34 35 35 35 35 36 37 38 38 39 38 38 38 38 38 39 40 41 41 42 42 43 43 44 44 44 44
34 34 34 35 35 35 35 34 32 32 33 34 33 33 34 34 34 35 35 36 36 36 36 36 37 38 37 37 38 39 40 40 40 40 40 40 40 40 41 41 42 43 44 44 44 45 46 46 46
37 36 36 36 37 37 36 35 33 33 33 34 34 34 34 35 36 36 36 36 37 37 38 38 39 39 39 39 40 40 41 41 41 41 41 42 42 42 43 43 44 45 45 45 46 46 47 47 47
Wind_Direction
261 261 261 258 256 256 256 256 256 254 253 251 250 248 245 243 243 244 243 242 241 242 244 244 243 242 241 239 238 236 234 233 232 231 230 229 229 229 231 233 236 237 238 242 246 248 252 254 255
263 261 260 256 255 255 255 255 255 254 254 252 251 249 246 244 243 243 243 243 242 242 244 245 244 242 241 242 240 238 236 236 235 234 232 232 232 232 234 236 240 241 241 244 248 251 255 256 257
265 262 260 258 256 256 255 254 254 254 254 253 253 251 247 245 244 244 243 243 242 243 244 245 244 242 241 241 239 238 236 235 235 235 234 234 234 235 237 239 241 244 244 245 249 253 255 256 257
267 264 261 260 259 258 256 255 254 254 253 253 253 251 249 246 243 243 242 243 243 243 244 245 242 241 239 237 237 236 236 234 234 234 234 233 235 236 238 240 243 245 247 247 250 253 254 255 258
266 264 262 262 262 261 258 256 253 252 252 252 253 252 250 247 243 242 242 243 243 243 244 245 241 238 237 237 236 235 235 234 233 233 233 233 234 237 239 242 245 246 248 249 251 252 254 255 258
265 264 263 263 263 262 260 257 253 251 251 253 253 252 250 247 243 242 242 243 243 244 243 241 238 235 234 235 235 235 235 235 234 233 233 234 235 238 240 243 246 247 249 250 250 252 254 256 258
267 266 264 265 265 263 260 257 253 252 251 251 252 252 249 246 244 243 243 243 244 243 241 239 238 235 234 233 233 234 234 234 234 234 234 235 236 239 242 244 247 248 249 250 251 253 255 256 258
268 267 266 266 266 263 260 257 254 252 251 250 251 250 249 246 244 243 243 244 243 241 240 237 237 236 234 234 234 233 234 234 234 235 236 236 237 240 243 246 248 249 250 251 252 254 256 257 258
270 268 269 268 266 263 261 257 255 253 250 249 249 249 248 245 242 242 242 243 242 239 238 237 236 235 233 233 235 234 233 233 235 235 235 237 238 240 244 247 249 251 251 252 253 255 256 257 258
273 272 271 269 266 264 261 257 254 250 247 247 249 249 249 245 242 241 241 241 241 239 237 236 235 233 233 232 233 233 234 234 235 236 236 237 239 242 245 247 249 251 252 253 255 256 256 258 259
274 275 273 269 266 264 263 257 253 249 245 245 247 248 247 244 242 240 240 240 239 238 235 235 233 232 232 232 233 232 235 236 235 236 237 238 240 241 244 247 249 251 253 255 257 258 258 258 258
275 275 272 268 267 265 264 259 252 249 243 243 245 247 247 242 242 240 239 239 239 236 234 235 232 231 231 231 233 234 235 235 236 237 238 239 241 241 245 248 250 252 254 256 258 260 260 259 258
277 274 270 266 266 264 263 261 253 249 244 243 245 246 245 242 242 240 238 238 237 235 234 235 233 232 231 231 232 234 234 234 237 237 238 239 242 243 246 248 249 251 253 255 258 259 260 259 258
277 274 268 264 264 264 262 262 255 250 245 244 244 243 244 243 241 240 238 240 239 236 236 235 234 233 232 231 231 233 234 235 237 237 238 240 241 244 246 247 249 250 252 254 256 256 257 259 259
276 273 269 266 265 263 262 261 257 253 250 247 246 243 243 242 242 241 241 242 240 239 235 232 230 232 232 231 232 233 234 236 238 239 238 240 243 246 248 248 249 250 251 253 254 254 256 258 258
275 273 270 267 266 264 263 259 258 254 253 251 247 244 242 240 239 241 242 242 242 239 235 234 230 230 231 231 232 234 234 236 238 240 239 241 243 247 249 249 249 250 250 251 253 253 256 258 259
275 274 270 265 265 264 262 256 255 254 253 252 250 244 240 238 239 241 241 240 243 240 236 237 234 232 232 232 233 235 235 237 240 241 241 242 243 246 249 250 249 249 250 250 252 254 255 258 259
276 273 269 266 265 265 264 257 254 255 251 251 248 244 240 239 240 241 240 240 243 242 240 241 237 235 234 235 236 238 237 238 241 242 243 243 243 246 249 251 251 251 251 251 252 254 255 258 259
277 274 269 265 264 265 263 257 256 256 253 249 246 245 243 241 241 241 240 241 245 245 243 243 241 238 237 239 239 240 239 241 244 243 243 242 244 247 249 251 251 251 251 251 253 254 256 259 260
275 272 268 264 263 263 261 257 257 257 253 251 248 245 243 243 243 241 241 245 248 247 245 243 244 240 238 240 241 241 241 243 246 245 246 246 246 247 249 250 251 251 251 252 253 255 256 258 260
275 271 269 266 263 263 261 257 257 256 252 252 251 247 246 244 244 243 244 246 247 246 247 246 245 242 241 242 242 243 243 244 247 248 249 249 248 248 248 250 251 252 252 253 254 256 258 258 261
274 272 269 266 264 263 263 259 255 256 253 252 252 248 248 247 246 244 245 246 248 249 250 249 248 248 245 244 244 245 245 245 250 252 250 251 251 250 249 251 252 252 252 253 254 256 258 259 260
273 270 268 266 265 264 263 262 257 256 252 251 252 249 249 249 248 248 250 249 250 251 252 252 250 249 248 247 248 248 248 248 251 253 253 253 253 252 250 252 253 252 252 252 254 255 257 258 260
272 270 268 266 265 265 263 264 261 257 253 252 251 249 249 250 250 250 253 252 251 252 252 253 253 252 249 248 248 249 251 252 254 255 255 254 255 254 252 252 253 252 253 254 254 255 257 258 262
270 269 268 267 267 268 265 264 263 258 256 254 251 249 250 250 251 253 254 253 251 252 253 254 255 254 252 250 251 251 253 253 255 257 257 256 255 255 254 253 253 253 254 255 257 256 256 258 260
268 268 269 269 268 267 264 262 261 258 256 254 252 251 252 252 253 254 255 256 255 254 254 255 256 256 255 254 255 255 256 257 258 259 259 257 255 256 255 253 254 254 255 256 257 257 256 258 259
266 265 267 267 268 267 264 261 259 257 255 254 252 251 252 253 254 254 255 256 257 257 255 256 257 258 258 257 258 258 258 259 260 259 258 257 257 257 256 255 255 255 255 255 257 257 257 258 260
264 265 265 266 267 267 265 263 260 256 254 254 254 251 251 252 253 254 255 256 257 258 258 257 258 259 260 259 259 260 261 261 262 260 258 259 258 257 257 256 257 257 255 256 257 259 259 259 260
264 263 263 265 265 266 266 263 261 259 256 255 254 253 252 251 252 253 254 254 256 257 258 259 259 260 262 262 262 261 261 261 263 262 260 259 259 260 260 258 259 258 258 259 258 259 260 259 261
263 262 262 263 264 264 265 264 263 261 258 256 255 254 253 251 251 251 253 255 256 257 258 260 261 262 262 263 263 262 261 262 262 262 261 260 262 262 262 261 259 258 260 260 260 261 262 262 262
Height
5801 5801 5801 5802 5802 5803 5804 5806 5808 5809 5811 5813 5814 5815 5818 5820 5823 5826 5827 5828 5829 5831 5833 5834 5836 5838 5840 5841 5843 5845 5846 5848 5850 5851 5853 5855 5856 5858 5860 5861 5862 5864 5865 5866 5867 5868 5869 5870 5871
5795 5796 5796 5796 5796 5797 5799 5801 5802 5804 5805 5807 5808 5810 5812 5814 5816 5819 5821 5822 5824 5826 5828 5830 5832 5834 5835 5837 5839 5841 5843 5845 5847 5848 5850 5852 5854 5855 5857 5858 5860 5861 5863 5864 5865 5866 5867 5868 5868
5789 5790 5790 5789 5789 5792 5794 5796 5797 5798 5799 5801 5803 5804 5806 5809 5811 5813 5815 5817 5819 5821 5823 5825 5827 5829 5831 5833 5835 5837 5839 5841 5843 5845 5847 5849 5851 5852 5854 5856 5857 5859 5860 5861 5862 5863 5864 5865 5866
5784 5784 5784 5784 5784 5786 5789 5790 5791 5792 5793 5795 5796 5798 5800 5803 5805 5807 5809 5811 5813 5815 5817 5819 5821 5823 5826 5828 5830 5833 5835 5837 5839 5841 5843 5845 5847 5849 5851 5852 5854 5856 5857 5858 5859 5860 5861 5862 5863
5777 5777 5777 5777 5778 5780 5782 5783 5784 5785 5786 5788 5790 5792 5794 5796 5798 5801 5803 5805 5807 5809 5811 5813 5815 5817 5820 5823 5825 5828 5830 5833 5835 5837 5839 5841 5843 5845 5847 5849 5851 5852 5854 5855 5856 5857 5858 5859 5860
5770 5770 5770 5770 5772 5773 5774 5775 5776 5777 5779 5781 5783 5785 5787 5789 5791 5794 5796 5798 5800 5802 5804 5806 5808 5811 5813 5817 5820 5823 5826 5828 5831 5833 5835 5837 5840 5841 5843 5845 5847 5848 5850 5851 5852 5853 5854 5856 5857
5764 5763 5763 5764 5765 5766 5767 5768 5769 5770 5772 5774 5776 5778 5780 5782 5784 5787 5789 5791 5793 5795 5797 5800 5802 5805 5808 5811 5814 5817 5820 5823 5826 5829 5831 5833 5835 5837 5839 5841 5843 5844 5846 5847 5848 5849 5851 5852 5853
5757 5757 5756 5757 5758 5760 5760 5760 5761 5763 5765 5767 5768 5771 5774 5776 5777 5779 5781 5783 5785 5788 5790 5793 5796 5799 5802 5805 5809 5811 5815 5818 5821 5824 5827 5829 5831 5833 5835 5837 5839 5840 5841 5842 5844 5845 5846 5848 5849
5750 5751 5750 5751 5752 5753 5753 5753 5754 5755 5757 5759 5761 5764 5767 5768 5770 5772 5774 5776 5778 5781 5784 5786 5790 5793 5796 5799 5803 5806 5809 5812 5816 5819 5822 5824 5826 5829 5831 5832 5834 5836 5837 5838 5839 5841 5842 5843 5845
5744 5744 5745 5746 5746 5746 5745 5746 5747 5748 5751 5753 5755 5757 5759 5761 5763 5765 5768 5770 5772 5775 5778 5780 5783 5787 5790 5794 5797 5800 5804 5807 5810 5814 5817 5819 5821 5824 5826 5828 5830 5831 5832 5834 5835 5836 5838 5839 5840
5738 5739 5739 5739 5739 5739 5739 5739 5740 5741 5744 5747 5749 5751 5752 5754 5756 5758 5761 5763 5765 5768 5771 5774 5777 5780 5784 5788 5791 5794 5798 5801 5805 5808 5811 5814 5816 5819 5821 5823 5825 5827 5828 5829 5830 5831 5833 5834 5836
5733 5733 5733 5733 5732 5733 5733 5733 5734 5735 5739 5740 5741 5743 5746 5748 5750 5752 5755 5757 5758 5761 5764 5767 5771 5774 5778 5781 5785 5789 5792 5795 5798 5802 5805 5808 5811 5813 5816 5818 5820 5822 5823 5825 5826 5827 5828 5829 5831
5727 5727 5727 5727 5727 5727 5727 5727 5728 5730 5732 5734 5735 5737 5740 5742 5744 5746 5748 5750 5751 5754 5757 5761 5765 5768 5772 5775 5779 5783 5786 5789 5792 5796 5799 5803 5806 5808 5811 5813 5815 5817 5818 5819 5821 5822 5823 5824 5826
5722 5721 5721 5721 5721 5721 5721 5721 5722 5724 5725 5727 5729 5731 5734 5736 5738 5740 5742 5744 5745 5747 5750 5754 5757 5761 5765 5769 5772 5776 5779 5783 5786 5790 5793 5797 5800 5803 5805 5807 5809 5811 5813 5814 5815 5816 5818 5819 5821
5716 5716 5715 5715 5715 5715 5716 5716 5717 5718 5719 5720 5722 5725 5728 5730 5732 5734 5736 5737 5739 5741 5744 5747 5751 5755 5759 5763 5766 5769 5773 5776 5780 5783 5787 5790 5794 5796 5799 5801 5803 5805 5806 5808 5810 5811 5812 5814 5816
5711 5710 5710 5711 5710 5709 5711 5712 5713 5712 5713 5715 5717 5719 5722 5724 5726 5728 5730 5732 5734 5736 5738 5741 5744 5748 5752 5756 5759 5763 5766 5770 5773 5777 5780 5784 5787 5789 5792 5794 5796 5798 5800 5802 5804 5805 5807 5808 5810
5705 5705 5705 5705 5704 5704 5704 5706 5708 5707 5708 5710 5712 5714 5716 5719 5721 5723 5725 5727 5729 5731 5734 5736 5739 5742 5745 5749 5753 5756 5760 5763 5767 5770 5773 5776 5779 5782 5784 5787 5789 5791 5793 5795 5797 5799 5801 5802 5804
5700 5699 5699 5699 5699 5699 5699 5701 5703 5703 5704 5705 5707 5709 5711 5714 5717 5718 5720 5722 5724 5726 5728 5731 5733 5736 5740 5743 5747 5750 5754 5758 5761 5763 5766 5769 5772 5774 5777 5779 5782 5784 5786 5788 5790 5792 5794 5795 5797
5694 5693 5693 5694 5693 5693 5694 5696 5698 5698 5699 5700 5701 5704 5707 5709 5711 5713 5715 5718 5720 5721 5723 5725 5728 5731 5734 5738 5742 5745 5748 5752 5755 5757 5760 5762 5764 5767 5769 5772 5774 5776 5778 5780 5782 5784 5786 5788 5789
5688 5688 5688 5688 5687 5687 5688 5690 5691 5692 5693 5695 5697 5699 5702 5704 5707 5709 5711 5713 5715 5717 5719 5721 5723 5726 5729 5732 5736 5739 5742 5745 5748 5750 5753 5755 5757 5759 5762 5764 5766 5768 5769 5772 5774 5776 5778 5780 5782
5683 5682 5682 5682 5682 5681 5682 5683 5685 5686 5688 5689 5691 5694 5696 5699 5702 5705 5707 5709 5711 5712 5714 5716 5718 5720 5723 5726 5729 5732 5736 5739 5741 5744 5746 5748 5749 5752 5754 5756 5758 5760 5761 5763 5766 5769 5771 5772 5774
5677 5676 5675 5675 5675 5675 5676 5676 5680 5680 5682 5683 5686 5688 5691 5695 5697 5699 5701 5703 5705 5707 5708 5710 5712 5715 5718 5720 5723 5726 5730 5732 5735 5737 5739 5740 5742 5744 5746 5748 5750 5752 5753 5756 5758 5760 5763 5764 5765
5671 5670 5669 5669 5668 5669 5670 5670 5674 5674 5676 5678 5680 5683 5686 5689 5692 5694 5696 5697 5699 5701 5703 5704 5707 5709 5712 5715 5717 5720 5723 5725 5727 5729 5731 5732 5733 5735 5737 5739 5741 5743 5745 5747 5749 5751 5754 5755 5757
5664 5664 5663 5662 5662 5663 5665 5664 5667 5669 5671 5672 5675 5677 5680 5683 5685 5688 5690 5692 5693 5695 5697 5699 5701 5703 5706 5708 5711 5713 5716 5718 5720 5721 5722 5723 5725 5726 5728 5730 5732 5734 5736 5738 5740 5743 5744 5746 5748
5658 5657 5656 5655 5655 5656 5658 5657 5661 5663 5664 5666 5668 5671 5673 5676 5678 5681 5683 5685 5687 5689 5691 5692 5694 5697 5699 5702 5704 5706 5708 5710 5712 5713 5714 5715 5716 5717 5719 5721 5723 5725 5727 5729 5731 5733 5735 5737 5738
5651 5650 5650 5649 5649 5650 5650 5651 5655 5657 5658 5659 5662 5664 5666 5669 5672 5674 5676 5678 5680 5682 5684 5686 5688 5690 5692 5694 5696 5698 5700 5702 5703 5704 5706 5706 5707 5708 5709 5711 5714 5716 5717 5719 5721 5723 5725 5727 5728
5643 5643 5643 5642 5641 5641 5642 5645 5648 5650 5651 5653 5655 5657 5659 5661 5664 5667 5669 5671 5673 5675 5677 5679 5681 5682 5684 5686 5688 5689 5691 5692 5694 5695 5696 5697 5698 5699 5700 5702 5703 5705 5707 5709 5711 5713 5715 5716 5718
5635 5635 5635 5634 5633 5633 5635 5637 5641 5643 5644 5646 5647 5649 5651 5653 5656 5658 5660 5663 5665 5667 5669 5670 5673 5674 5676 5677 5679 5680 5682 5683 5683 5685 5686 5687 5688 5689 5690 5691 5693 5694 5696 5698 5700 5702 5704 5705 5707
5627 5627 5626 5626 5626 5626 5627 5632 5634 5635 5636 5637 5638 5640 5642 5644 5647 5649 5651 5654 5656 5658 5659 5661 5663 5665 5666 5667 5669 5670 5671 5672 5673 5674 5675 5676 5677 5679 5680 5681 5683 5684 5685 5687 5689 5691 5693 5694 5696
5616 5617 5618 5618 5618 5618 5619 5625 5625 5626 5627 5628 5629 5631 5633 5635 5638 5640 5642 5644 5646 5648 5650 5651 5653 5655 5656 5657 5659 5659 5660 5661 5662 5663 5664 5665 5667 5668 5669 5671 5672 5673 5674 5676 5677 5680 5681 5682 5684